Weather History for Philadelphia, PA

Change the Weather History Date:

Thursday, November 29, 2012

  Actual Average Record
Temperature  
Mean Temperature 38 °F 43 °F  
Max Temperature 47 °F 51 °F 70 °F (1927)
Min Temperature 29 °F 35 °F 15 °F (1955)
Degree Days  
Heating Degree Days 27 22  
Month to date heating degree days 591 500  
Since 1 July heating degree days 801 793  
Cooling Degree Days 0 0  
Month to date cooling degree days 0 0  
Year to date cooling degree days 1603 1300  
Moisture  
Dew Point 23 °F    
Average Humidity 54    
Maximum Humidity 70    
Minimum Humidity 37    
Precipitation  
Precipitation 0.00 in 0.12 in 1.68 in (1971)
Month to date precipitation 1.05 2.87  
Year to date precipitation 31.52 37.85  
Snow  
Snow 0.00 in 0.10 in 1.90 in (1995)
Month to date snowfall T 0.3  
Since 1 July snowfall T 0.3  
Since 1 September snowfall T 0.3  
Snow Depth 0.00 in    
Sea Level Pressure  
Sea Level Pressure 30.37 in    
Wind  
Wind Speed 9 mph (WSW)    
Max Wind Speed 16 mph    
Max Gust Speed 21 mph    
Visibility 10 miles    
Events      
T = Trace of Precipitation, MM = Missing Value Source: NWS Daily Summary

Daily Weather History Graph

Daily Weather History Graph

Search for Another Location

Airport:

Trip Planner

Search our weather history database for the weather conditions in past years. The results will help you decide how hot, cold, wet, or windy it might be!

Date:

Astronomy

Nov. 29, 2012 Rise Set
Actual Time 7:01 AM EST 4:36 PM EST
Civil Twilight 6:31 AM EST 5:06 PM EST
Nautical Twilight 5:58 AM EST 5:40 PM EST
Astronomical Twilight 5:25 AM EST 6:12 PM EST
Moon 5:37 PM EST (11/29) 7:46 AM EST (11/29)
Length of Visible Light 10h 35m
Length of Day
9h 35m
Full, 99% of the Moon is Illuminated
Nov 29
Full
Dec 6
Last Quarter
Dec 13
New
Dec 20
First Quarter
Dec 28
Full

Hourly Weather History & Observations

Time (EST) Temp. Windchill Dew Point Humidity Pressure Visibility Wind Dir Wind Speed Gust Speed Precip Events Conditions
12:54 AM 30.9 °F 22.8 °F 21.0 °F 67% 30.35 in 10.0 mi West 9.2 mph - N/A   Clear
1:54 AM 30.0 °F 23.2 °F 19.9 °F 66% 30.36 in 10.0 mi West 6.9 mph - N/A   Clear
2:54 AM 30.9 °F 23.5 °F 21.0 °F 67% 30.37 in 10.0 mi West 8.1 mph - N/A   Clear
3:54 AM 30.0 °F 22.4 °F 19.9 °F 66% 30.37 in 10.0 mi West 8.1 mph - N/A   Clear
4:54 AM 30.0 °F 23.2 °F 19.9 °F 66% 30.36 in 10.0 mi WSW 6.9 mph - N/A   Clear
5:54 AM 30.0 °F 21.7 °F 19.9 °F 66% 30.38 in 10.0 mi West 9.2 mph - N/A   Clear
6:54 AM 30.9 °F 23.5 °F 21.0 °F 67% 30.39 in 10.0 mi West 8.1 mph - N/A   Mostly Cloudy
7:54 AM 35.1 °F 28.6 °F 21.9 °F 59% 30.40 in 10.0 mi WSW 8.1 mph - N/A   Mostly Cloudy
8:54 AM 39.0 °F 31.0 °F 23.0 °F 53% 30.41 in 10.0 mi West 13.8 mph - N/A   Mostly Cloudy
9:54 AM 41.0 °F 34.3 °F 21.9 °F 47% 30.43 in 10.0 mi West 11.5 mph - N/A   Overcast
10:54 AM 44.1 °F 38.1 °F 23.0 °F 43% 30.43 in 10.0 mi West 11.5 mph - N/A   Mostly Cloudy
11:54 AM 45.0 °F 38.9 °F 23.0 °F 42% 30.41 in 10.0 mi West 12.7 mph - N/A   Scattered Clouds
12:54 PM 46.0 °F 40.2 °F 23.0 °F 40% 30.39 in 10.0 mi WNW 12.7 mph - N/A   Scattered Clouds
1:54 PM 46.9 °F - 23.0 °F 39% 30.35 in 10.0 mi WSW 10.4 mph - N/A   Partly Cloudy
2:54 PM 46.9 °F - 21.9 °F 37% 30.33 in 10.0 mi WSW 11.5 mph - N/A   Clear
3:54 PM 46.0 °F 41.0 °F 21.9 °F 39% 30.35 in 10.0 mi West 10.4 mph - N/A   Clear
4:54 PM 43.0 °F 37.7 °F 21.0 °F 42% 30.34 in 10.0 mi West 9.2 mph - N/A   Clear
5:54 PM 41.0 °F 36.4 °F 24.1 °F 51% 30.35 in 10.0 mi SW 6.9 mph - N/A   Clear
6:54 PM 43.0 °F 37.7 °F 26.1 °F 51% 30.35 in 10.0 mi SW 9.2 mph 18.4 mph N/A   Clear
7:54 PM 39.9 °F 33.4 °F 26.1 °F 58% 30.37 in 10.0 mi SW 10.4 mph - N/A   Clear
8:54 PM 37.9 °F 35.5 °F 27.0 °F 65% 30.37 in 10.0 mi SW 3.5 mph - N/A   Clear
9:54 PM 37.9 °F 32.7 °F 26.1 °F 62% 30.37 in 10.0 mi WSW 6.9 mph - N/A   Clear
9:58 PM 37.4 °F 32.1 °F 26.6 °F 65% 30.37 in 10.0 mi SW 6.9 mph - N/A   Clear
10:54 PM 36.0 °F 31.1 °F 27.0 °F 70% 30.37 in 10.0 mi SSW 5.8 mph - N/A   Clear
11:54 PM 36.0 °F 31.1 °F 27.0 °F 70% 30.37 in 10.0 mi SSW 5.8 mph - N/A   Clear